Regional Weather Roundup
Issued by NWS

Home | Current Version | Previous Version | Graphics & Text | Print | Product List | Glossary On
Versions: 1 2 3 4 5 6 7 8 9 10 11 12 13 14 15 16 17 18 19 20 21 22 23 24 25 26 27 28 29 30 31 32 33 34 35 36 37 38 39 40 41 42 43 44 45 46 47 48 49 50
000
ASUS45 KPSR 310210
RWRAZ

ARIZONA HOURLY REGIONAL WEATHER ROUNDUP
NATIONAL WEATHER SERVICE PHOENIX AZ
700 PM MST SAT JUL 30 2016

NOTE: FAIR INDICATES FEW OR NO CLOUDS BELOW 12,000 FEET WITH NO
SIGNIFICANT WEATHER AND/OR OBSTRUCTIONS TO VISIBILITY.

AZZ001>003-036-310300-
NORTHWEST ARIZONA

CITY           SKY/WX    TMP DP  RH WIND       PRES   REMARKS
BULLHEAD CITY  CLEAR    100  59  25 SE22G28   29.70R HX 100
KINGMAN        CLEAR     87  54  32 SW18      29.93S
$$

AZZ004>008-015-016-018-310300-
NORTH CENTRAL ARIZONA

CITY           SKY/WX    TMP DP  RH WIND       PRES   REMARKS
GRAND CANYON   CLOUDY    75  50  41 S12       30.19R
WILLIAMS       MOCLDY    68  52  56 SE23      30.29S
PRESCOTT       PTCLDY    85  52  32 SW13      30.06R
FLAGSTAFF      TSTM      58  57  97 NW5       30.27S
PAYSON         MOCLDY    84  55  37 W7        30.09R
PAGE           CLOUDY    90  49  24 VRB6      29.93R
$$

AZZ009>014-017-310300-
NORTHEAST ARIZONA

CITY           SKY/WX    TMP DP  RH WIND       PRES   REMARKS
WINSLOW        CLOUDY    81  48  31 W17G26    30.03R
SAINT JOHNS    CLOUDY    72  53  51 S21G36    30.10R
WINDOW ROCK    CLOUDY    75  52  44 CALM      30.15F
SHOW LOW       CLOUDY    75  48  38 SW10      30.17R
$$

AZZ023-310300-
GREATER PHOENIX AREA

CITY           SKY/WX    TMP DP  RH WIND       PRES   REMARKS
PHOENIX        PTCLDY    97  63  32 SW14      29.74R
BUCKEYE        CLEAR     97  61  30 SW12      29.75S
GLENDALE       PTCLDY   100  61  27 SW14G21   29.75R HX 101
LUKE AFB       CLEAR    100  61  27 SW21      29.72S HX 101
DEER VALLEY    CLEAR     98  60  28 SW13      29.76R
SCOTTSDALE     CLEAR     99  60  27 SW10      29.78R
MESA-FALCON    PTCLDY   N/A N/A N/A W12       29.75R
MESA-GATEWAY   PTCLDY    99  61  28 W7        29.78R
CHANDLER       CLEAR     99  61  28 SW9       29.76R
$$

AZZ027-028-310300-
SOUTHWEST MARICOPA COUNTY AND PINAL COUNTY

CITY           SKY/WX    TMP DP  RH WIND       PRES   REMARKS
CASA GRANDE    CLEAR     95  59  30 W12       29.81R
GILA BEND      FAIR      98  62  30 SW13      29.74S
$$

AZZ503-504-507>509-310300-
SOUTHEAST ARIZONA

CITY           SKY/WX    TMP DP  RH WIND       PRES   REMARKS
TUCSON         MOCLDY    93  57  29 E16G29    29.92R
DAVIS-MONTHAN  MOCLDY    90  56  32 SE23G44   29.91R
RYAN FIELD     CLEAR     95  63  34 W10       29.88R
NOGALES        MOCLDY    77  65  66 S5        30.01R
SIERRA VISTA   CLOUDY    77  60  54 N10       30.07R
DOUGLAS        TSTM      77  65  66 W13       30.00R
SAFFORD        MOCLDY    93  52  24 S6        29.86R
$$

AZZ020-021-025-026-031-310300-
SOUTHWEST ARIZONA

CITY           SKY/WX    TMP DP  RH WIND       PRES   REMARKS
YUMA           CLEAR     94  70  45 S13       29.73S HX 100
$$

CAZ031-033-041-043-047-048-061-310300-
SOUTHERN CALIFORNIA

CITY           SKY/WX    TMP DP  RH WIND       PRES   REMARKS
DOWNTOWN L.A.  CLEAR     77  66  68 CALM      29.82R
L.A. AIRPORT   MOSUNNY   72  65  78 W9        29.83S
SAN DIEGO      PTCLDY    72  64  76 W7        29.85R
BURBANK        SUNNY     81  65  58 S7        29.83R
ONTARIO        PTCLDY    88  62  41 W15       29.82R
RIVERSIDE      PTCLDY    87  62  43 W10       29.81S
PALM SPRINGS   CLEAR     97  70  41 SE6       29.75S HX 103
EL CENTRO NAS  CLEAR     98  67  36 SE14      29.69F HX 102
IMPERIAL       CLEAR    100  70  37 SE16      29.68S HX 107
BLYTHE         CLEAR     98  68  37 S15       29.72S HX 103
NEEDLES        PTCLDY   101  64  29 S14       29.72F HX 104
$$

NVZ020-UTZ003-310300-
SOUTHERN NEVADA-UTAH

CITY           SKY/WX    TMP DP  RH WIND       PRES   REMARKS
LAS VEGAS      PTCLDY   100  55  22 SE10      29.69S
SALT LAKE CITY MOCLDY    95  42  16 N7        29.87R
$$

NMZ009-TXZ055-310300-
NEW MEXICO-WEST TEXAS

CITY           SKY/WX    TMP DP  RH WIND       PRES   REMARKS
ALBUQUERQUE    CLOUDY    83  50  31 S28G36    30.03S THUNDER
EL PASO        MOCLDY    92  50  23 S9        29.93R
$$


........................KEY........................
SKY/WX - SKY CONDITION/WEATHER
TMP    - TEMPERATURE IN FAHRENHEIT
DP     - DEW POINT IN FAHRENHEIT
RH     - RELATIVE HUMIDITY IN PERCENT
WIND   - DIRECTION AND SPEED IN MILES PER HOUR (MPH)
VRB    - VARIABLE WIND DIRECTION
PRES   - MEAN SEA LEVEL PRESSURE IN INCHES OF MERCURY
         F - FALLING PRESSURE   R - RISING PRESSURE
         S - STEADY PRESSURE
VSB    - VISIBILITY IN MILES
HX     - HEAT INDEX IN FAHRENHEIT
WCI    - WIND CHILL INDEX IN FAHRENHEIT
TC     - TEMPERATURE IN CELSIUS WHICH IS ALSO KNOWN AS
         TEMPERATURE IN CENTIGRADE
AFB    - AIR FORCE BASE
         LUKE AFB IS LUKE AIR FORCE BASE
         DAVIS-MONTHAN IS DAVIS-MONTHAN AIR FORCE BASE
NAS    - NAVAL AIR STATION
         EL CENTRO NAS IS EL CENTRO NAVAL AIR STATION
N/A    - NOT AVAILABLE




USA.gov is the U.S. government's official web portal to all federal, state and local government web resources and services.